C/2004 H1 (LINEAR)                                                    

T 2004 Jan. 15.09868 TT                                 Nakano

q   2.0773975            (2000.0)            P               Q

                   Peri.  290.33954     -0.80236268     -0.23617934

                   Node   120.02256     +0.17902853     +0.78084086

e   1.0            Incl.  140.72403     -0.56935307     +0.57836569

From 66 observations 2004 Apr. 16-22.

Residuals in seconds of arc 

2004/                     040417 859  0.6+  1.2+    040420 704  0.5-  0.5+  

040416 704  0.8-  0.3+    040417 859  0.9-  0.1+    040420 704  0.7-  1.1+  

040416 704  0.4-  0.5-    040418 854  0.6+  0.4+    040420 704  0.1+  1.2-  

040416 704  0.4-  0.3-    040418 854  1.5+  0.8+    040420 704  0.3+  0.3+  

040416 704  0.6-  0.2-    040418 474  0.9+  1.1-    040420 E14  0.6-  0.7-  

040416 704  0.0   0.3-    040418 474 (0.3-  2.3-)   040420 E14  0.4-  0.5-  

040416 A50  0.5+  0.2+    040418 474  0.2-  1.8-    040420 E14  0.8+  0.1-  

040416 A50  0.1+  0.1-    040418 474  0.5+  1.0-    040420 360  0.1+  1.1-  

040416 A50  0.4+  0.2-    040418 474  1.0-  0.1-    040420 360  0.0   0.7-  

040416 A50  0.1-  0.0     040418 E14  0.6-  0.1-    040420 360  0.6-  0.2-  

040416 246  0.4-  0.3-    040418 E14  0.7-  0.6-    040421 704  1.1-  0.5-  

040416 246  0.1-  0.2-    040418 E14  1.3-  0.8-    040421 704  1.5-  0.1+  

040416 246  0.2+  0.1-    040419 704  0.1+  0.8+    040421 704  0.8-  0.4+  

040416 246  0.0   0.0     040419 704  0.4+  0.9+    040421 704  0.2+  0.5-  

040416 246  0.1-  0.6+    040419 704  0.8+  0.9+    040421 704  0.1+  0.6+  

040417 704  1.3-  0.4-    040419 704  1.8+  1.7+    040421 704  0.2-  0.4-  

040417 704  1.1+  0.2-    040419 704  1.5-  0.4+    040421 704  0.3+  0.4+  

040417 704  1.1-  0.4-    040419 704  0.7+  0.9+    040422 704  0.2-  0.7-  

040417 704  0.4+  0.7+    040419 704  0.0   0.7+    040422 704  1.0+  0.9+  

040417 704  0.2-  0.1-    040419 704  0.6+  1.3-    040422 704 (1.7-  3.1+) 

040417 704  0.5+  0.3-    040419 704  0.1+  0.9+    040422 704  0.3+  0.2+  

040417 704 (2.7+  0.3+)   040419 704  0.6+  0.9+    040422 704  0.1-  0.1+  

040417 704  1.6+  1.5+    040419 213  1.2+  1.7-                            

040417 859  0.0   0.3+    040420 704  0.1-  0.2-                            



NAKANO

         **** Don't distribute anyone except personal use only ****

                (C) Copyright 2004 OAA/ComputingSection

write mail from CFAD0::NAKANO on 2004-04-24 06:00:27(JST).

 



◎C/2004 H1の軌道と予報位置です



 久万の中村彰正氏から4月20日の観測が報告されました.氏のCCD全光度は,

下の予報光度より1等級ほど明るく,18.1等でした.



    C/2004 H1 (LINEAR)                                                    

T 2004 Jan. 15.51846 TT                                 Nakano

q   2.0845744            (2000.0)            P               Q

                   Peri.  290.73405     -0.80292711     -0.23188753

                   Node   120.07478     +0.18481145     +0.77898643

e   1.0            Incl.  140.61327     -0.56670343     +0.58258761

From 27 observations 2004 Apr. 16-20.

 

Date/        TT  R.A.(2000) Decl.     Delta   r     Daily motion  Mag.  Moon Age

              h    h  m       。  ,                      ,  / PA 。  m1      。

2004 Apr. 20 12  07 40.18  +02 13.2   2.217  2.371    26.0 / 349  19.0   76  .01

          21 12  07 39.85  +02 38.7   2.243  2.377    25.2 / 350  19.0   65  .04

          22 12  07 39.55  +03 03.6   2.269  2.382    24.5 / 351  19.0   54  .08

          23 12  07 39.28  +03 27.8   2.295  2.388    23.8 / 351  19.1   44  .14

          24 12  07 39.04  +03 51.3   2.321  2.394    23.2 / 352  19.1   34  .21

          25 12  07 38.84  +04 14.3   2.346  2.399    22.5 / 353  19.2   26  .29

          26 12  07 38.66  +04 36.7   2.372  2.405    21.9 / 354  19.2   22  .38

          27 12  07 38.52  +04 58.5   2.398  2.411    21.3 / 355  19.2   23  .48

          28 12  07 38.40  +05 19.7   2.424  2.416    20.8 / 356  19.3   30  .58

          29 12  07 38.30  +05 40.4   2.450  2.422    20.2 / 357  19.3   40  .67

          30 12  07 38.24  +06 00.6   2.476  2.428    19.7 / 358  19.3   51  .77

     May   1 12  07 38.19  +06 20.3   2.502  2.434    19.2 / 359  19.4   63  .85

           2 12  07 38.17  +06 39.5   2.528  2.440    18.7 /   0  19.4   76  .92

           3 12  07 38.18  +06 58.2   2.553  2.446    18.3 /   1  19.4   90  .97

           4 12  07 38.20  +07 16.5   2.579  2.452    17.8 /   2  19.5  104 1.00

           5 12  07 38.25  +07 34.3   2.605  2.458    17.4 /   3  19.5  118  .99

           6 12  07 38.32  +07 51.7   2.630  2.464    17.0 /   4  19.5  132  .96

           7 12  07 38.41  +08 08.7   2.655  2.470    16.6 /   5  19.5  145  .90

           8 12  07 38.51  +08 25.3   2.681  2.476    16.3 /   7  19.6  156  .82

           9 12  07 38.64  +08 41.4   2.706  2.482    15.9 /   8  19.6  162  .72

          10 12  07 38.78  +08 57.2   2.731  2.489    15.6 /   9  19.6  158  .61

          11 12  07 38.95  +09 12.7   2.756  2.495    15.3 /  10  19.7  148  .50

          12 12  07 39.12  +09 27.7   2.781  2.501    15.0 /  11  19.7  137  .39

          13 12  07 39.32  +09 42.4   2.806  2.507    14.7 /  12  19.7  125  .29

          14 12  07 39.53  +09 56.8   2.831  2.514    14.4 /  13  19.8  113  .20

          15 12  07 39.76  +10 10.9   2.855  2.520    14.2 /  15  19.8  101  .13

          16 12  07 40.00  +10 24.6   2.880  2.526    13.9 /  16  19.8   89  .07

          17 12  07 40.26  +10 38.0   2.904  2.533    13.7 /  17  19.9   77  .03

          18 12  07 40.53  +10 51.2   2.928  2.539    13.5 /  18  19.9   66  .00

          19 12  07 40.81  +11 04.0   2.952  2.546    13.3 /  19  19.9   54  .00

          20 12  07 41.11  +11 16.5   2.976  2.552    13.1 /  20  19.9   43  .02

NAKANO

         **** Don't distribute anyone except personal use only ****

                (C) Copyright 2004 OAA/ComputingSection

write mail from CFAD0::NAKANO on 2004-04-22 02:57:15(JST).

 



戻ります。